User: anonymous   Login
Location: Unspecified
(0.0000°N, 0.0000°E)
Time: 07:20:48
(UTC+00:00)
Language:

AUBIESAT-1 - Orbit

View from above orbital plane
View from above orbital plane
View from above satellite
View from above satellite

Ground track
Ground track

The orbit data is extracted from the following two-line orbital elements,

1 37854U 11061E   14332.30948420  .00012326  00000-0  77614-3 0  9711
2 37854 101.7066 082.9257 0206081 297.3491 131.9030 14.93526066167187
Epoch (UTC): 28 November 2014 07:25:39
Eccentricity: 0.0206081
inclination: 101.7066°
perigee height: 443 km
apogee height: 730 km
right ascension of ascending node: 82.9257°
argument of perigee: 297.3491°
revolutions per day: 14.93526066
mean anomaly at epoch: 131.9030°
orbit number at epoch: 16718

The dashed part of the orbit path shows where the satellite is in the earth's shadow,  

DLR